Hutchinson, KS

12:24 PM CDT on September 16, 2019 (GMT -0500)
Hutchinson Municipal

Weather History for KHUT - July, 2019

Change the Weather History Date:

Friday, July 19, 2019

  Actual Average Record
Temperature  
Mean Temperature 90 °F -  
Max Temperature 102 °F 91 °F 108 °F (2012)
Min Temperature 78 °F 66 °F 59 °F (2014)
Cooling Degree Days 25    
Growing Degree Days 40 (Base 50)    
Moisture  
Dew Point 67 °F    
Average Humidity 49    
Maximum Humidity 71    
Minimum Humidity 30    
Precipitation  
Precipitation 0.00 in - - ()
Sea Level Pressure  
Sea Level Pressure 29.72 in    
Wind  
Wind Speed 16 mph (South)    
Max Wind Speed 23 mph    
Max Gust Speed 38 mph    
Visibility 10 miles    
Events      
Averages and records for this station are not official NWS values.
T = Trace of Precipitation, MM = Missing Value Source: NWS Daily Summary

Daily Weather History Graph

Daily Weather History Graph

Search for Another Location

Airport or City:

Astronomy

Jul. 19, 2019 Rise Set
Actual Time 6:23 AM CDT 8:51 PM CDT
Civil Twilight 5:53 AM CDT 9:21 PM CDT
Nautical Twilight 5:15 AM CDT 9:59 PM CDT
Astronomical Twilight 4:34 AM CDT 10:40 PM CDT
Moon 10:52 PM CDT (7/19) 8:50 AM CDT (7/19)
Length of Visible Light 15h 28m
Length of Day
14h 27m
Waning Gibbous, 93% of the Moon is Illuminated
Jul 19
Waning Gibbous
Jul 24
Last Quarter
Jul 31
New
Aug 7
First Quarter
Aug 15
Full

Hourly Weather History & Observations

Time (CDT) Temp. Heat Index Dew Point Humidity Pressure Visibility Wind Dir Wind Speed Gust Speed Precip Events Conditions
12:52 AM 84.0 °F 87.8 °F 69.1 °F 61% 29.74 in 10.0 mi South 16.1 mph 25.3 mph N/A   Clear
1:52 AM 82.0 °F 84.9 °F 68.0 °F 62% 29.74 in 10.0 mi South 16.1 mph 24.2 mph N/A   Clear
2:52 AM 81.0 °F 83.8 °F 68.0 °F 65% 29.74 in 10.0 mi South 12.7 mph 23.0 mph N/A   Clear
3:52 AM 80.1 °F 82.7 °F 68.0 °F 67% 29.73 in 10.0 mi South 13.8 mph - N/A   Clear
4:52 AM 79.0 °F - 68.0 °F 69% 29.73 in 10.0 mi South 12.7 mph 20.7 mph N/A   Clear
5:52 AM 78.1 °F - 68.0 °F 71% 29.73 in 10.0 mi South 11.5 mph - N/A   Clear
6:52 AM 79.0 °F - 68.0 °F 69% 29.73 in 10.0 mi South 11.5 mph - N/A   Clear
7:52 AM 81.0 °F 83.8 °F 68.0 °F 65% 29.74 in 10.0 mi South 16.1 mph 23.0 mph N/A   Clear
8:52 AM 84.0 °F 87.0 °F 68.0 °F 58% 29.74 in 10.0 mi South 15.0 mph - N/A   Clear
9:52 AM 88.0 °F 91.4 °F 68.0 °F 51% 29.74 in 10.0 mi South 15.0 mph - N/A   Clear
10:52 AM 91.9 °F 95.9 °F 68.0 °F 45% 29.74 in 10.0 mi South 18.4 mph 25.3 mph N/A   Clear
11:52 AM 95.0 °F 99.5 °F 68.0 °F 41% 29.74 in 10.0 mi South 17.3 mph - N/A   Clear
12:52 PM 98.1 °F 103.0 °F 68.0 °F 37% 29.73 in 10.0 mi SSW 18.4 mph 26.5 mph N/A   Clear
1:52 PM 100.0 °F 105.6 °F 68.0 °F 35% 29.72 in 10.0 mi South 23.0 mph 32.2 mph N/A   Clear
2:52 PM 102.0 °F 107.3 °F 66.9 °F 32% 29.70 in 10.0 mi SSW 23.0 mph 38.0 mph N/A   Clear
3:52 PM 102.0 °F 108.1 °F 68.0 °F 33% 29.69 in 10.0 mi South 23.0 mph 31.1 mph N/A   Clear
4:52 PM 102.0 °F 106.6 °F 66.0 °F 31% 29.68 in 10.0 mi South 21.9 mph 34.5 mph N/A   Clear
5:52 PM 100.0 °F 103.6 °F 64.9 °F 32% 29.68 in 10.0 mi South 19.6 mph 33.4 mph N/A   Clear
6:52 PM 99.0 °F 100.5 °F 63.0 °F 30% 29.67 in 10.0 mi South 20.7 mph 31.1 mph N/A   Clear
7:52 PM 96.1 °F 97.3 °F 63.0 °F 33% 29.68 in 10.0 mi South 19.6 mph 27.6 mph N/A   Clear
8:52 PM 91.9 °F 92.9 °F 63.0 °F 38% 29.70 in 10.0 mi South 17.3 mph - N/A   Clear
9:52 PM 88.0 °F 89.6 °F 64.9 °F 46% 29.72 in 10.0 mi SSE 12.7 mph - N/A   Clear
10:52 PM 87.1 °F 88.3 °F 64.0 °F 46% 29.73 in 10.0 mi South 17.3 mph 26.5 mph N/A   Clear
11:52 PM 84.9 °F 87.6 °F 66.9 °F 55% 29.74 in 10.0 mi SSE 15.0 mph - N/A   Clear